Printer-friendly version

IAU Minor Planet Center

Minor Planet Center

MPEC 2006-J13 : 2006 JE

The following Minor Planet Electronic Circular may be linked-to from your own Web pages, but must not otherwise be redistributed electronically.


Read MPEC 2006-J12 Read MPEC 2006-J14


M.P.E.C. 2006-J13                                Issued 2006 May 2, 17:28 UT

     The Minor Planet Electronic Circulars contain information on unusual
         minor planets and routine data on comets.  They are published
   on behalf of Commission 20 of the International Astronomical Union by the
          Minor Planet Center, Smithsonian Astrophysical Observatory,
                          Cambridge, MA 02138, U.S.A.

                  Supported in part by the Brinson Foundation
                  Supported in part by the TABASGO Foundation
             Prepared using the Tamkin Foundation Computer Network

                              MPC@CFA.HARVARD.EDU
          URL http://cfa-www.harvard.edu/iau/mpc.html  ISSN 1523-6714

                                    2006 JE

Observations:
     K06J00E* C2006 05 01.26900 12 58 13.92 +37 49 15.1          18.1   EJ013704
     K06J00E  C2006 05 01.27907 12 57 11.14 +37 59 14.9          18.2   EJ013704
     K06J00E  C2006 05 01.29890 12 55 05.43 +38 19 00.6          19.4   EJ013704
     K06J00E  C2006 05 01.30882 12 54 01.59 +38 28 55.1          18.7   EJ013704
     K06J00E  C2006 05 01.94339111 16 57.45 +49 02 00.5                 EJ013J95
     K06J00E  C2006 05 01.94424211 16 46.78 +49 02 42.9          18.4 R EJ013J95
     K06J00E  C2006 05 01.96391211 12 34.52 +49 18 42.7                 EJ013J95
     K06J00E  C2006 05 01.96447911 12 27.30 +49 19 09.5                 EJ013J95
     K06J00E  C2006 05 01.96504611 12 19.93 +49 19 37.0          18.4 R EJ013J95
     K06J00E  C2006 05 02.15429 10 29 07.62 +51 30 48.3          17.9 V EJ013703
     K06J00E  C2006 05 02.15454 10 29 03.99 +51 30 56.9          18.3 V EJ013703
     K06J00E  C2006 05 02.15477 10 29 00.35 +51 31 03.5          18.3 V EJ013703
     K06J00E  C2006 05 02.16570 10 26 09.59 +51 35 31.1          18.1 R EJ013734
     K06J00E  C2006 05 02.16874 10 25 24.45 +51 36 59.5          18.5 R EJ013734
     K06J00E  C2006 05 02.17063 10 24 56.64 +51 37 53.5          18.5 R EJ013734

Observer details:
703 Catalina Sky Survey.  Observer R. A. Kowalski.  Measurers E. C. Beshore,
    E. J. Christensen, G. J. Garradd, A. R. Gibbs, A. D. Grauer, R. E. Hill,
    R. A. Kowalski, S. M. Larson, R. H. McNaught.  0.68-m Schmidt + CCD.
704 Lincoln Laboratory ETS, New Mexico.  Observers M. Bezpalko, L. Manguso,
    D. Torres, R. Kracke, M. Blythe, H. Love, G. Spitz.  Measurers J. Stuart,
    J. Kommers.  1.0-m f/2.15 reflector + CCD.
734 Farpoint Observatory.  Observer D. Tibbets.  Measurer G. Hug.  0.7-m
    reflector + CCD.
J95 Great Shefford.  Observer P. Birtwhistle.  0.40-m f/6.0 Schmidt-Cassegrain
    + CCD.

Orbital elements:
2006 JE                                                  Earth MOID = 0.0123 AU
Epoch 2006 Mar. 6.0 TT = JDT 2453800.5                  MPC
M 316.04934              (2000.0)            P               Q
n   0.42097150     Peri.  286.02759     +0.83913081     +0.51435497
a   1.7631973      Node    43.44410     -0.34613662     +0.75585263
e   0.7535245      Incl.   14.90838     -0.41958183     +0.40512438
P   2.34           H   23.9           G   0.15           U   5
Residuals in seconds of arc
060501 704  0.8-  0.4+    060501 J95  0.6+  0.5+    060502 703  0.7+  0.8+
060501 704  0.1+  0.1-    060501 J95  0.5-  0.2-    060502 703  1.3-  0.2+
060501 704  0.3+  0.0     060501 J95  0.5+  0.6-    060502 734  0.8+  0.2+
060501 704  0.7+  0.1-    060501 J95  0.1+  0.3-    060502 734 (3.7+  0.0 )
060501 J95  0.8-  0.3+    060502 703  0.2-  0.1-    060502 734 (8.2+  0.6-)

Ephemeris:
2006 JE                  a,e,i = 1.76, 0.75, 15                  q = 0.4346
Date    TT    R. A. (2000) Decl.     Delta      r     Elong.  Phase     V
2006 04 25    15 05.19   +05 50.1    0.111    1.108   156.6    21.2    20.4
2006 04 26    15 01.03   +07 13.7    0.0960   1.095   156.2    21.8    20.1
2006 04 27    14 55.32   +09 05.9    0.0816   1.081   155.3    22.9    19.7
2006 04 28    14 47.03   +11 44.1    0.0674   1.067   153.4    25.0    19.3
2006 04 29    14 34.05   +15 42.1    0.0535   1.054   149.9    28.7    18.9
2006 04 30    14 11.13   +22 11.0    0.0404   1.040   142.9    35.7    18.5
2006 05 01    13 21.94   +33 34.0    0.0290   1.026   128.7    50.0    18.1
2006 05 02    11 05.20   +49 47.5    0.0220   1.012   100.2    78.6    18.4
2006 05 03    07 12.06   +47 41.7    0.0237   0.998    63.9   114.9    20.2
2006 05 04    05 26.89   +33 49.4    0.0328   0.984    40.9   137.9    23.0
2006 05 05    04 46.96   +24 57.1    0.0450   0.969    29.3   149.4    25.4

Gareth V. Williams           (C) Copyright 2006 MPC           M.P.E.C. 2006-J13

Read MPEC 2006-J12 Read MPEC 2006-J14


Our Web policy. Index to the CBAT/MPC/ICQ pages.


Valid HTML 4.01!